2024/01/27 00:00:00,18.9, 1.6
2024/01/27 00:10:00,18.9, 1.3
2024/01/27 00:20:00,18.9, 1.5
2024/01/27 00:30:00,19.0, 1.5
2024/01/27 00:40:00,19.2, 1.4
2024/01/27 00:50:00,19.1, 2.0
2024/01/27 01:00:00,19.3, 1.7
2024/01/27 01:10:00,19.4, 1.6
2024/01/27 01:20:00,19.6, 1.5
2024/01/27 01:30:00,19.5, 1.6
2024/01/27 01:40:00,19.0, 1.4
2024/01/27 01:50:00,18.8, 1.4
2024/01/27 02:00:00,18.7, 1.9
2024/01/27 02:10:00,18.5, 1.4
2024/01/27 02:20:00,18.0, 1.8
2024/01/27 02:30:00,17.9, 1.4
2024/01/27 02:40:00,18.0, 1.6
2024/01/27 02:50:00,18.0, 1.4
2024/01/27 03:00:00,17.9, 1.6
2024/01/27 03:10:00,17.9, 1.7
2024/01/27 03:20:00,17.9, 1.7
2024/01/27 03:30:00,17.9, 1.6
2024/01/27 03:40:00,17.8, 1.1
2024/01/27 03:50:00,17.7, 1.5
2024/01/27 04:00:00,17.6, 1.5
2024/01/27 04:10:00,17.4, 1.5
2024/01/27 04:20:00,17.3, 1.8
2024/01/27 04:30:00,17.3, 1.8
2024/01/27 04:40:00,17.3, 1.5
2024/01/27 04:50:00,17.0, 1.5
2024/01/27 05:00:00,16.9, 1.5
2024/01/27 05:10:00,16.9, 1.7
2024/01/27 05:20:00,16.9, 1.7
2024/01/27 05:30:00,17.4, 1.8
2024/01/27 05:40:00,17.1, 1.8
2024/01/27 05:50:00,16.4, 1.6
2024/01/27 06:00:00,16.2, 1.8
2024/01/27 06:10:00,16.3, 1.7
2024/01/27 06:20:00,16.4, 1.2
2024/01/27 06:30:00,16.1, 1.8
2024/01/27 06:40:00,16.0, 2.0
2024/01/27 06:50:00,15.9, 1.8
2024/01/27 07:00:00,15.9, 1.5
2024/01/27 07:10:00,16.0, 2.1
2024/01/27 07:20:00,15.8, 1.8
2024/01/27 07:30:00,15.6, 2.0
2024/01/27 07:40:00,15.8, 1.9
2024/01/27 07:50:00,15.7, 2.0
2024/01/27 08:00:00,15.3, 1.9
2024/01/27 08:10:00,15.0, 1.9
2024/01/27 08:20:00,15.0, 2.1
2024/01/27 08:30:00,15.0, 2.3
2024/01/27 08:40:00,14.9, 2.4
2024/01/27 08:50:00,---, 1.9
2024/01/27 09:00:00, 0.0, 3.3
2024/01/27 09:10:00, 0.0, 3.7
2024/01/27 09:20:00, 0.0, 3.3
2024/01/27 09:30:00, 0.0, 3.7
2024/01/27 09:40:00, 0.0, 4.0
2024/01/27 09:50:00, 0.0, 3.5
2024/01/27 10:00:00, 0.0, 3.3
2024/01/27 10:10:00, 3.9, 3.8
2024/01/27 10:20:00, 3.5, 3.8
2024/01/27 10:30:00, 2.9, 3.9
2024/01/27 10:40:00, 3.0, 4.3
2024/01/27 10:50:00, 3.4, 4.5
2024/01/27 11:00:00, 3.8, 5.0
2024/01/27 11:10:00, 3.8, 6.0
2024/01/27 11:20:00, 3.5, 6.2
2024/01/27 11:30:00, 1.7, 6.4
2024/01/27 11:40:00, 0.9, 7.0
2024/01/27 11:50:00, 1.3, 6.9
2024/01/27 12:00:00, 2.1, 7.5
2024/01/27 12:10:00, 2.6, 7.4
2024/01/27 12:20:00, 3.3, 6.8
2024/01/27 12:30:00,34.2, 6.0
2024/01/27 12:40:00,79.0, 5.3
2024/01/27 12:50:00,79.2, 5.0
2024/01/27 13:00:00,79.3, 5.1
2024/01/27 13:10:00,79.2, 5.7
2024/01/27 13:20:00,---, 7.1
2024/01/27 13:30:00, 4.0, 7.5
2024/01/27 13:40:00,80.1, 8.2
2024/01/27 13:50:00,80.2, 7.7
2024/01/27 14:00:00,80.5, 8.2
2024/01/27 14:10:00,80.6, 7.3
2024/01/27 14:20:00,80.3, 6.8
2024/01/27 14:30:00,79.9, 5.3
2024/01/27 14:40:00,79.7, 4.7
2024/01/27 14:50:00,79.8, 4.2
2024/01/27 15:00:00,79.8, 4.3
2024/01/27 15:10:00,79.8, 4.8
2024/01/27 15:20:00,79.5, 4.0
2024/01/27 15:30:00,79.5, 4.4
2024/01/27 15:40:00,79.6, 4.0
2024/01/27 15:50:00,79.5, 4.0
2024/01/27 16:00:00,79.3, 3.3
2024/01/27 16:10:00,79.2, 3.8
2024/01/27 16:20:00,79.2, 4.9
2024/01/27 16:30:00,48.5, 4.9
2024/01/27 16:40:00, 2.6, 4.4
2024/01/27 16:50:00,---, 3.7
2024/01/27 17:00:00,78.4, 3.2
2024/01/27 17:10:00,78.7, 2.7
2024/01/27 17:20:00,78.6, 2.4
2024/01/27 17:30:00,78.6, 2.5
2024/01/27 17:40:00,78.6, 1.6
2024/01/27 17:50:00,78.5, 1.7
2024/01/27 18:00:00,78.4, 1.6
2024/01/27 18:10:00,78.3, 1.6
2024/01/27 18:20:00,78.2, 1.4
2024/01/27 18:30:00,78.3, 1.3
2024/01/27 18:40:00,78.3, 1.1
2024/01/27 18:50:00,78.2, 1.3
2024/01/27 19:00:00,78.2, 1.2
2024/01/27 19:10:00,78.2, 1.3
2024/01/27 19:20:00,78.1, 1.7
2024/01/27 19:30:00,78.0, 2.1
2024/01/27 19:40:00,77.9, 1.9
2024/01/27 19:50:00,77.9, 1.9
2024/01/27 20:00:00,77.7, 1.8
2024/01/27 20:10:00,77.6, 1.9
2024/01/27 20:20:00,77.7, 2.3
2024/01/27 20:30:00,77.6, 1.9
2024/01/27 20:40:00,77.6, 1.9
2024/01/27 20:50:00,77.4, 2.0
2024/01/27 21:00:00,47.5, 2.3
2024/01/27 21:10:00,---, 2.0
2024/01/27 21:20:00,77.3, 1.9
2024/01/27 21:30:00,77.6, 1.6
2024/01/27 21:40:00,78.0, 1.4
2024/01/27 21:50:00,77.6, 1.0
2024/01/27 22:00:00,77.5, 1.1
2024/01/27 22:10:00,77.3, 1.1
2024/01/27 22:20:00,77.1, 1.2
2024/01/27 22:30:00,76.9, 1.9
2024/01/27 22:40:00,39.7, 1.8
2024/01/27 22:50:00,24.7, 1.8
2024/01/27 23:00:00, 2.1, 2.2
2024/01/27 23:10:00, 2.1, 1.9
2024/01/27 23:20:00, 2.0, 2.0
2024/01/27 23:30:00, 2.1, 2.0
2024/01/27 23:40:00, 2.3, 1.7
2024/01/27 23:50:00,54.6, 1.4
